TimeAKST,TemperatureF,Dew PointF,Humidity,Sea Level PressureIn,VisibilityMPH,Wind Direction,Wind SpeedMPH,Gust SpeedMPH,PrecipitationIn,Events,Conditions,WindDirDegrees,DateUTC
12:56 AM,41.0,36.0,82,29.80,5.0,East,16.1,27.6,0.00,Rain,Light Rain,80,2014-02-04 09:56:00
1:22 AM,41.0,37.4,87,29.79,6.0,East,16.1,26.5,0.02,Rain,Light Rain,80,2014-02-04 10:22:00
1:42 AM,41.0,37.4,87,29.79,8.0,ENE,17.3,24.2,0.02,Rain,Light Rain,60,2014-02-04 10:42:00
1:56 AM,41.0,36.9,85,29.80,6.0,ENE,17.3,-,0.02,Rain,Light Rain,60,2014-02-04 10:56:00
3:56 AM,41.9,38.8,89,29.81,4.0,ENE,18.4,-,0.00,Rain,Light Rain,60,2014-02-04 12:56:00
4:56 AM,41.9,38.8,89,29.82,7.0,ENE,20.7,31.1,0.00,,Overcast,60,2014-02-04 13:56:00
5:56 AM,42.8,39.2,87,29.83,5.0,ENE,17.3,28.8,N/A,Rain,Light Rain,70,2014-02-04 14:56:00
6:56 AM,43.0,38.8,85,29.85,10.0,ENE,20.7,31.1,0.02,Rain,Light Rain,60,2014-02-04 15:56:00
7:25 AM,42.8,39.2,87,29.85,5.0,ENE,20.7,25.3,0.00,Rain,Light Rain,70,2014-02-04 16:25:00
7:37 AM,42.8,39.2,87,29.85,4.0,ENE,19.6,27.6,0.01,Rain,Light Rain,70,2014-02-04 16:37:00
7:56 AM,41.9,39.9,93,29.88,3.0,East,20.7,-,0.01,,Overcast,80,2014-02-04 16:56:00
8:02 AM,42.8,39.2,87,29.87,2.5,East,24.2,27.6,0.01,,Overcast,80,2014-02-04 17:02:00
8:14 AM,42.8,39.2,87,29.88,3.0,ENE,20.7,26.5,0.03,Rain,Light Rain,70,2014-02-04 17:14:00
8:36 AM,42.8,39.2,87,29.89,2.5,ENE,18.4,28.8,0.06,Rain,Light Rain,70,2014-02-04 17:36:00
8:44 AM,42.8,39.2,87,29.89,1.8,ENE,19.6,-,0.07,,Overcast,70,2014-02-04 17:44:00
8:56 AM,42.8,39.2,87,29.89,3.0,ENE,18.4,-,N/A,Rain,Light Rain,70,2014-02-04 17:56:00
9:23 AM,42.8,39.2,87,29.91,3.0,ENE,21.9,28.8,0.04,Rain,Light Rain,60,2014-02-04 18:23:00
9:42 AM,42.8,39.2,87,29.92,2.0,ENE,19.6,24.2,0.10,Rain,Light Rain,70,2014-02-04 18:42:00
9:56 AM,41.9,39.9,93,29.94,1.2,ENE,21.9,28.8,0.14,,Overcast,70,2014-02-04 18:56:00
10:09 AM,42.8,39.2,87,29.95,1.0,ENE,18.4,25.3,0.01,Rain,Light Rain,70,2014-02-04 19:09:00
10:15 AM,42.8,39.2,87,29.95,0.5,ENE,16.1,-,0.02,Fog-Rain,Light Rain,70,2014-02-04 19:15:00
10:30 AM,42.8,39.2,87,29.96,0.5,ENE,17.3,-,0.04,Fog,Fog,60,2014-02-04 19:30:00
10:56 AM,41.9,39.9,93,29.99,0.8,ESE,13.8,-,0.07,,Overcast,120,2014-02-04 19:56:00
11:04 AM,42.8,39.2,87,29.98,0.5,East,13.8,-,N/A,Fog,Fog,100,2014-02-04 20:04:00
11:56 AM,42.8,41.0,93,30.03,3.0,SSE,8.1,-,N/A,Rain,Light Rain,150,2014-02-04 20:56:00
12:17 PM,42.8,41.0,93,30.04,7.0,SE,9.2,-,0.00,,Overcast,130,2014-02-04 21:17:00
12:30 PM,42.8,41.0,93,30.05,3.0,ESE,9.2,-,0.00,Rain,Light Rain,120,2014-02-04 21:30:00
12:56 PM,43.0,41.0,93,30.06,6.0,SE,10.4,-,0.01,,Overcast,130,2014-02-04 21:56:00
1:16 PM,42.8,41.0,93,30.07,1.8,SE,10.4,-,N/A,,Overcast,130,2014-02-04 22:16:00
1:23 PM,42.8,41.0,93,30.07,3.0,ESE,11.5,-,N/A,,Overcast,120,2014-02-04 22:23:00
1:56 PM,41.9,41.0,97,30.10,2.5,SE,9.2,-,0.02,Rain,Light Rain,140,2014-02-04 22:56:00
2:09 PM,42.8,41.0,93,30.10,4.0,SE,9.2,-,0.00,Rain,Light Rain,140,2014-02-04 23:09:00
2:56 PM,42.8,41.0,93,30.12,8.0,SE,12.7,-,N/A,,Overcast,130,2014-02-04 23:56:00
3:56 PM,41.9,41.0,97,30.14,1.2,ESE,16.1,21.9,0.00,Rain,Light Rain,120,2014-02-05 00:56:00
4:19 PM,42.8,41.0,93,30.15,1.0,SE,13.8,-,0.00,,Overcast,130,2014-02-05 01:19:00
4:26 PM,42.8,41.0,93,30.15,1.5,SE,13.8,-,0.00,,Overcast,130,2014-02-05 01:26:00
4:33 PM,42.8,41.0,93,30.16,3.0,SE,13.8,-,0.00,,Overcast,130,2014-02-05 01:33:00
4:56 PM,41.9,41.0,97,30.18,5.0,ESE,15.0,-,0.00,,Overcast,110,2014-02-05 01:56:00
5:56 PM,42.8,41.0,93,30.22,3.0,ESE,11.5,-,N/A,Rain,Light Rain,120,2014-02-05 02:56:00
6:02 PM,42.8,41.0,93,30.22,1.8,ESE,12.7,-,0.00,Rain,Light Rain,120,2014-02-05 03:02:00
6:05 PM,42.8,41.0,93,30.22,1.2,ESE,13.8,-,0.00,Rain,Light Rain,110,2014-02-05 03:05:00
6:09 PM,42.8,41.0,93,30.22,0.8,ESE,15.0,-,0.00,Rain,Light Rain,110,2014-02-05 03:09:00
6:22 PM,42.8,41.0,93,30.23,1.2,ESE,13.8,-,0.00,Rain,Light Rain,110,2014-02-05 03:22:00
6:28 PM,42.8,41.0,93,30.23,2.0,ESE,11.5,-,0.00,Rain,Light Rain,110,2014-02-05 03:28:00
6:56 PM,41.9,41.0,97,30.26,2.0,East,10.4,-,0.00,Rain,Light Rain,100,2014-02-05 03:56:00
7:16 PM,42.8,41.0,93,30.27,1.2,East,10.4,-,0.00,,Overcast,90,2014-02-05 04:16:00
7:20 PM,42.8,41.0,93,30.27,0.8,East,10.4,-,0.00,,Overcast,90,2014-02-05 04:20:00
7:30 PM,42.8,41.0,93,30.27,1.2,ESE,15.0,19.6,0.00,Rain,Light Rain,110,2014-02-05 04:30:00
7:33 PM,42.8,41.0,93,30.28,2.0,ESE,15.0,19.6,0.00,Rain,Light Rain,110,2014-02-05 04:33:00
7:41 PM,42.8,41.0,93,30.28,7.0,ESE,15.0,-,0.00,,Overcast,110,2014-02-05 04:41:00
7:56 PM,41.9,41.0,97,30.30,4.0,ESE,16.1,-,0.00,,Overcast,110,2014-02-05 04:56:00
8:56 PM,43.0,41.9,96,30.31,10.0,ESE,17.3,25.3,0.00,,Overcast,110,2014-02-05 05:56:00
9:24 PM,44.6,42.8,93,30.31,10.0,East,19.6,29.9,N/A,,Overcast,80,2014-02-05 06:24:00
9:56 PM,43.9,41.0,90,30.34,5.0,ENE,15.0,-,0.00,Rain,Light Rain,70,2014-02-05 06:56:00
10:56 PM,43.0,39.9,89,30.38,4.0,ENE,20.7,25.3,0.00,,Overcast,70,2014-02-05 07:56:00
11:39 PM,42.8,39.2,87,30.40,5.0,East,18.4,25.3,0.00,,Overcast,80,2014-02-05 08:39:00
11:56 PM,42.8,39.2,87,30.41,6.0,ENE,19.6,25.3,N/A,Rain,Light Rain,70,2014-02-05 08:56:00